Location: ?????????
(38.5999°N, 22.7695°E)
Time: 09:06:18
(UTC+00:00)

PAYLOAD A - Pass Details

Date: 23 May 2024
Orbit: 691 x 830 km, 98.5° (Epoch: 23 June)

Event Time Altitude Azimuth Distance (km) Brightness Sun altitude
Rises 02:24:56 0° 9° (N) 3,105 7.9 -8.5°
Reaches altitude 10° 02:27:10 10° 7° (N) 2,196 7.0 -8.1°
Maximum altitude 02:31:56 66° 286° (WNW) 796 4.0 -7.4°
Drops below altitude 10° 02:36:50 10° 205° (SSW) 2,260 5.9 -6.6°
Enters shadow 02:38:48 - 202° (SSW) 3,047 6.6 -6.2°
